User: anonymous   Login
Location: Boiro
(42.6475°N, 8.8834°W)
Time: 06:50:23
(UTC+01:00)
Language:

AIST 2D - Orbit

View from above orbital plane
View from above orbital plane
View from above satellite
View from above satellite

Ground track
Ground track

The orbit data is extracted from the following two-line orbital elements,

1 41465U 16026B   22027.86825641  .00006206  00000-0  16717-3 0  9997
2 41465  97.0774 269.0813 0008634 289.1029 132.5938 15.38142693321905
Epoch (UTC): 27 January 2022 20:50:17
Eccentricity: 0.0008634
inclination: 97.0774°
perigee height: 446 km
apogee height: 457 km
right ascension of ascending node: 269.0813°
argument of perigee: 289.1029°
revolutions per day: 15.38142693
mean anomaly at epoch: 132.5938°
orbit number at epoch: 32190

The dashed part of the orbit path shows where the satellite is in the earth's shadow,  

DLR